�������l�o���
Date,Time,MP-1(��Sv/h),MP-2(��Sv/h),MP-3(��Sv/h),MP-4(��Sv/h),MP-5(��Sv/h),MP-6(��Sv/h),MP-7(��Sv/h),MP-8(��Sv/h),����,����(m/s),���J
2017/08/28,00:00,0.949,1.497,0.991,1.788,1.236,0.517,0.947,0.873,��,3.8,��
2017/08/28,00:10,0.947,1.499,0.992,1.788,1.235,0.519,0.946,0.872,��,4.1,��
2017/08/28,00:20,0.946,1.500,0.990,1.791,1.236,0.519,0.946,0.874,��,4.1,��
2017/08/28,00:30,0.947,1.501,0.992,1.790,1.236,0.518,0.947,0.872,��,4.2,��
2017/08/28,00:40,0.946,1.500,0.992,1.790,1.236,0.519,0.947,0.873,��,4.1,��
2017/08/28,00:50,0.945,1.499,0.992,1.790,1.236,0.520,0.946,0.873,��,3.4,��
2017/08/28,01:00,0.948,1.500,0.992,1.791,1.236,0.518,0.947,0.874,��,2.8,��
2017/08/28,01:10,0.948,1.499,0.992,1.792,1.234,0.518,0.949,0.872,��,3.1,��
2017/08/28,01:20,0.947,1.499,0.991,1.789,1.237,0.520,0.947,0.873,��쐼,3.6,��
2017/08/28,01:30,0.948,1.500,0.992,1.791,1.235,0.518,0.949,0.875,��,3.8,��
2017/08/28,01:40,0.948,1.498,0.992,1.793,1.234,0.518,0.948,0.875,��,2.6,��
2017/08/28,01:50,0.946,1.498,0.992,1.790,1.234,0.517,0.947,0.875,��,2.8,��
2017/08/28,02:00,0.948,1.498,0.993,1.791,1.237,0.519,0.949,0.874,��쐼,2.3,��
2017/08/28,02:10,0.946,1.501,0.991,1.791,1.237,0.517,0.948,0.873,��쐼,2.6,��
2017/08/28,02:20,0.947,1.500,0.993,1.789,1.235,0.519,0.947,0.874,��,3.2,��
2017/08/28,02:30,0.946,1.501,0.993,1.791,1.236,0.519,0.949,0.874,��,3.6,��
2017/08/28,02:40,0.948,1.496,0.989,1.790,1.237,0.519,0.946,0.874,��,3.3,��
2017/08/28,02:50,0.946,1.501,0.992,1.793,1.236,0.517,0.948,0.873,��,2.9,��
2017/08/28,03:00,0.948,1.499,0.993,1.790,1.237,0.519,0.949,0.873,��쓌,3.4,��
2017/08/28,03:10,0.948,1.500,0.992,1.791,1.237,0.518,0.950,0.874,��쓌,2.8,��
2017/08/28,03:20,0.946,1.501,0.990,1.791,1.234,0.518,0.947,0.875,��,2.0,��
2017/08/28,03:30,0.948,1.500,0.991,1.792,1.237,0.518,0.949,0.872,��,2.0,��
2017/08/28,03:40,0.945,1.500,0.991,1.792,1.237,0.519,0.948,0.872,��,2.6,��
2017/08/28,03:50,0.948,1.498,0.992,1.789,1.235,0.518,0.948,0.875,��,2.8,��
2017/08/28,04:00,0.948,1.499,0.989,1.789,1.236,0.518,0.946,0.873,��,3.1,��
2017/08/28,04:10,0.947,1.498,0.993,1.790,1.236,0.518,0.949,0.876,��,2.9,��
2017/08/28,04:20,0.946,1.499,0.991,1.789,1.238,0.519,0.948,0.875,��,2.3,��
2017/08/28,04:30,0.950,1.500,0.993,1.792,1.235,0.519,0.949,0.873,��쓌,2.2,��
2017/08/28,04:40,0.946,1.497,0.992,1.791,1.237,0.518,0.948,0.874,��쓌,1.2,��
2017/08/28,04:50,0.948,1.499,0.991,1.794,1.237,0.516,0.947,0.874,��,1.4,��
2017/08/28,05:00,0.949,1.501,0.993,1.790,1.237,0.516,0.947,0.874,��쐼,0.9,��
2017/08/28,05:10,0.947,1.500,0.990,1.791,1.235,0.517,0.947,0.876,��,2.0,��
2017/08/28,05:20,0.947,1.499,0.991,1.791,1.234,0.518,0.946,0.875,��쓌,1.2,��
2017/08/28,05:30,0.945,1.500,0.992,1.790,1.234,0.517,0.949,0.875,��,1.9,��
2017/08/28,05:40,0.948,1.500,0.994,1.790,1.237,0.519,0.947,0.873,��,2.0,��
2017/08/28,05:50,0.949,1.499,0.992,1.788,1.235,0.518,0.947,0.876,��쐼,1.7,��
2017/08/28,06:00,0.948,1.499,0.992,1.794,1.237,0.517,0.948,0.875,��쓌,2.0,��
2017/08/28,06:10,0.947,1.498,0.992,1.790,1.237,0.517,0.948,0.874,��쓌,2.5,��
2017/08/28,06:20,0.949,1.501,0.995,1.792,1.235,0.519,0.946,0.873,��쓌,2.2,��
2017/08/28,06:30,0.947,1.501,0.992,1.791,1.236,0.519,0.947,0.873,��쓌,1.9,��
2017/08/28,06:40,0.947,1.500,0.993,1.791,1.237,0.517,0.948,0.875,��,2.3,��
2017/08/28,06:50,0.949,1.501,0.993,1.789,1.234,0.518,0.947,0.876,��쓌,2.3,��
2017/08/28,07:00,0.948,1.500,0.991,1.796,1.236,0.517,0.947,0.875,��쓌,1.5,��
2017/08/28,07:10,0.948,1.501,0.978,1.789,1.238,0.517,0.946,0.873,��,1.7,��
2017/08/28,07:20,0.947,1.502,0.987,1.795,1.235,0.517,0.947,0.875,��,1.5,��
2017/08/28,07:30,0.947,1.500,0.980,1.794,1.236,0.518,0.947,0.874,��,1.7,��
2017/08/28,07:40,0.947,1.501,0.976,1.794,1.236,0.517,0.946,0.874,��쓌,0.9,��
2017/08/28,07:50,0.947,1.501,0.983,1.794,1.236,0.516,0.947,0.873,�쓌,1.1,��
2017/08/28,08:00,0.948,1.501,0.986,1.794,1.234,0.519,0.948,0.874,��쐼,0.9,��
2017/08/28,08:10,0.949,1.501,0.983,1.796,1.235,0.517,0.947,0.873,��쐼,1.4,��
2017/08/28,08:20,0.947,1.497,0.985,1.794,1.236,0.515,0.947,0.873,��,1.4,��
2017/08/28,08:30,0.949,1.498,0.981,1.798,1.235,0.517,0.948,0.874,��,1.2,��
2017/08/28,08:40,0.947,1.499,0.978,1.794,1.235,0.516,0.947,0.873,��,0.9,��
2017/08/28,08:50,0.946,1.496,0.976,1.793,1.234,0.516,0.948,0.873,�쓌,0.8,��
2017/08/28,09:00,0.949,1.498,0.978,1.792,1.233,0.517,0.948,0.873,��쓌,1.2,��
2017/08/28,09:10,0.949,1.498,0.976,1.792,1.237,0.517,0.947,0.874,��쓌,0.9,��
2017/08/28,09:20,0.947,1.499,0.971,1.793,1.234,0.516,0.948,0.873,�쓌,1.4,��
2017/08/28,09:30,0.949,1.495,0.977,1.792,1.234,0.516,0.948,0.872,��쓌,1.1,��
2017/08/28,09:40,0.948,1.497,0.975,1.791,1.236,0.516,0.951,0.872,�쓌,1.5,��
2017/08/28,09:50,0.948,1.490,0.973,1.793,1.235,0.514,0.946,0.871,�쓌,1.1,��
2017/08/28,10:00,0.948,1.495,0.972,1.792,1.239,0.517,0.948,0.872,��쓌,1.7,��
2017/08/28,10:10,0.945,1.499,0.973,1.793,1.235,0.516,0.948,0.873,�쓌,2.3,��
2017/08/28,10:20,0.949,1.497,0.973,1.793,1.238,0.517,0.948,0.872,�쓌,2.3,��
2017/08/28,10:30,0.945,1.500,0.975,1.792,1.235,0.518,0.949,0.871,�쓌,2.5,��
2017/08/28,10:40,0.949,1.497,0.972,1.793,1.237,0.518,0.948,0.874,���쓌,2.5,��
2017/08/28,10:50,0.950,1.499,0.972,1.793,1.236,0.518,0.948,0.873,���쓌,2.6,��
2017/08/28,11:00,0.951,1.500,0.972,1.794,1.236,0.516,0.949,0.872,���쓌,2.3,��
2017/08/28,11:10,0.951,1.497,0.973,1.795,1.237,0.518,0.949,0.872,���쓌,2.5,��
2017/08/28,11:20,0.952,1.497,0.974,1.796,1.236,0.518,0.948,0.872,���쓌,3.3,��
2017/08/28,11:30,0.951,1.500,0.973,1.797,1.239,0.518,0.950,0.873,��,2.3,��
2017/08/28,11:40,0.948,1.501,0.975,1.792,1.238,0.518,0.948,0.873,���쓌,1.9,��
2017/08/28,11:50,0.951,1.503,0.975,1.791,1.239,0.519,0.949,0.873,���쓌,2.6,��
2017/08/28,12:00,0.951,1.504,0.974,1.793,1.239,0.517,0.949,0.873,���쓌,2.3,��
2017/08/28,12:10,0.951,1.505,0.975,1.794,1.238,0.518,0.950,0.874,���쓌,3.0,��
2017/08/28,12:20,0.955,1.504,0.974,1.795,1.239,0.518,0.949,0.873,���쓌,3.1,��
2017/08/28,12:30,0.949,1.506,0.976,1.794,1.239,0.519,0.950,0.873,���쓌,2.3,��
2017/08/28,12:40,0.952,1.508,0.975,1.795,1.240,0.518,0.951,0.874,�쓌,2.5,��
2017/08/28,12:50,0.950,1.508,0.974,1.793,1.238,0.518,0.951,0.876,���쓌,2.9,��
2017/08/28,13:00,0.950,1.508,0.974,1.795,1.241,0.517,0.950,0.873,���쓌,2.2,��
2017/08/28,13:10,0.952,1.506,0.973,1.796,1.240,0.520,0.947,0.873,�쓌,2.3,��
2017/08/28,13:20,0.951,1.503,0.976,1.797,1.240,0.517,0.949,0.874,�쓌,2.0,��
2017/08/28,13:30,0.952,1.504,0.973,1.796,1.242,0.519,0.947,0.873,���쓌,2.5,��
2017/08/28,13:40,0.951,1.503,0.975,1.797,1.243,0.518,0.948,0.875,���쓌,2.5,��
2017/08/28,13:50,0.950,1.507,0.974,1.797,1.241,0.517,0.949,0.875,���쓌,2.3,��
2017/08/28,14:00,0.950,1.502,0.974,1.799,1.242,0.518,0.949,0.873,��쓌,2.2,��
2017/08/28,14:10,0.951,1.505,0.976,1.793,1.241,0.518,0.949,0.872,�쓌,3.0,��
2017/08/28,14:20,0.954,1.505,0.977,1.798,1.241,0.517,0.949,0.873,�쓌,2.3,��
2017/08/28,14:30,0.952,1.506,0.977,1.798,1.243,0.517,0.949,0.874,���쓌,2.0,��
2017/08/28,14:40,0.953,1.507,0.976,1.796,1.243,0.518,0.947,0.874,�쓌,3.0,��
2017/08/28,14:50,0.954,1.506,0.979,1.796,1.242,0.518,0.946,0.875,��쓌,1.1,��
2017/08/28,15:00,0.952,1.503,0.978,1.798,1.242,0.519,0.948,0.876,�쓌,2.0,��
2017/08/28,15:10,0.954,1.507,0.979,1.798,1.242,0.519,0.948,0.877,��쓌,2.2,��
2017/08/28,15:20,0.957,1.509,0.977,1.798,1.243,0.518,0.949,0.875,�쓌,2.5,�L
2017/08/28,15:30,0.951,1.507,0.978,1.800,1.242,0.520,0.947,0.876,�쓌,1.9,�L
2017/08/28,15:40,0.953,1.510,0.979,1.798,1.245,0.519,0.951,0.876,��,1.5,��
2017/08/28,15:50,0.955,1.506,0.980,1.799,1.244,0.518,0.951,0.876,�쓌,1.5,��
2017/08/28,16:00,0.954,1.509,0.978,1.800,1.240,0.519,0.951,0.877,��,2.3,��
2017/08/28,16:10,0.955,1.510,0.980,1.800,1.244,0.520,0.951,0.876,��쓌,2.0,��
2017/08/28,16:20,0.954,1.508,0.979,1.798,1.243,0.520,0.951,0.877,��쓌,2.3,��
2017/08/28,16:30,0.955,1.506,0.978,1.801,1.245,0.520,0.948,0.877,��쓌,2.2,��
2017/08/28,16:40,0.957,1.509,0.979,1.799,1.244,0.521,0.949,0.876,��,2.2,�L
2017/08/28,16:50,0.951,1.507,0.978,1.801,1.240,0.519,0.949,0.876,��,1.5,�L
2017/08/28,17:00,0.956,1.505,0.977,1.798,1.244,0.520,0.951,0.876,��쓌,1.4,�L
2017/08/28,17:10,0.955,1.508,0.977,1.801,1.243,0.520,0.950,0.874,�쓌,1.9,��
2017/08/28,17:20,0.953,1.510,0.978,1.798,1.243,0.521,0.950,0.876,��쓌,0.9,��
2017/08/28,17:30,0.955,1.509,0.979,1.799,1.242,0.518,0.951,0.877,��쓌,2.2,��
2017/08/28,17:40,0.955,1.508,0.979,1.799,1.242,0.520,0.952,0.876,��쓌,3.0,��
2017/08/28,17:50,0.954,1.509,0.981,1.800,1.242,0.522,0.949,0.877,��쓌,2.3,��
2017/08/28,18:00,0.955,1.508,0.977,1.800,1.241,0.521,0.948,0.876,��쓌,2.2,��
2017/08/28,18:10,0.954,1.507,0.979,1.798,1.243,0.521,0.949,0.876,��쓌,2.5,��
2017/08/28,18:20,0.953,1.511,0.978,1.797,1.245,0.522,0.950,0.876,��쓌,3.4,��
2017/08/28,18:30,0.951,1.510,0.980,1.800,1.243,0.521,0.950,0.877,��쓌,4.1,��
2017/08/28,18:40,0.953,1.507,0.978,1.799,1.242,0.521,0.950,0.876,��쓌,4.3,��
2017/08/28,18:50,0.955,1.510,0.978,1.797,1.241,0.520,0.949,0.876,��쓌,3.9,��
2017/08/28,19:00,0.951,1.509,0.980,1.798,1.243,0.522,0.949,0.877,��쓌,3.5,��
2017/08/28,19:10,0.954,1.508,0.979,1.799,1.244,0.521,0.951,0.877,��쓌,2.3,��
2017/08/28,19:20,0.953,1.510,0.980,1.800,1.241,0.520,0.948,0.875,��쓌,4.0,��
2017/08/28,19:30,0.951,1.508,0.978,1.797,1.244,0.520,0.950,0.874,��쓌,3.8,��
2017/08/28,19:40,0.953,1.510,0.980,1.796,1.244,0.521,0.951,0.874,��쓌,4.5,��
2017/08/28,19:50,0.952,1.508,0.979,1.797,1.240,0.520,0.950,0.876,��쓌,4.5,��
2017/08/28,20:00,0.953,1.509,0.981,1.797,1.243,0.520,0.949,0.875,��,4.2,��
2017/08/28,20:10,0.953,1.510,0.977,1.797,1.241,0.520,0.948,0.874,��쓌,4.2,��
2017/08/28,20:20,0.953,1.508,0.980,1.798,1.242,0.519,0.951,0.875,��쓌,4.5,��
2017/08/28,20:30,0.952,1.507,0.979,1.797,1.242,0.521,0.948,0.875,��쓌,4.9,��
2017/08/28,20:40,0.953,1.507,0.978,1.798,1.240,0.521,0.949,0.875,��,4.3,��
2017/08/28,20:50,0.953,1.508,0.977,1.801,1.242,0.520,0.950,0.875,��,3.7,��
2017/08/28,21:00,0.952,1.508,0.975,1.799,1.242,0.521,0.948,0.876,��,3.5,��
2017/08/28,21:10,0.953,1.510,0.978,1.799,1.241,0.522,0.951,0.875,��,2.5,��
2017/08/28,21:20,0.953,1.510,0.979,1.798,1.242,0.520,0.950,0.877,��,2.5,��
2017/08/28,21:30,0.952,1.509,0.979,1.800,1.243,0.521,0.950,0.876,��,3.1,��
2017/08/28,21:40,0.954,1.510,0.979,1.796,1.242,0.521,0.951,0.875,��,2.3,��
2017/08/28,21:50,0.954,1.508,0.979,1.799,1.243,0.521,0.950,0.875,��쓌,1.4,��
2017/08/28,22:00,0.956,1.508,0.981,1.798,1.242,0.520,0.950,0.877,��,2.3,��
2017/08/28,22:10,0.954,1.508,0.980,1.799,1.243,0.522,0.951,0.875,��,2.8,��
2017/08/28,22:20,0.955,1.508,0.978,1.799,1.244,0.520,0.952,0.877,��,2.3,��
2017/08/28,22:30,0.954,1.509,0.978,1.798,1.243,0.520,0.950,0.876,��,2.8,��
2017/08/28,22:40,0.954,1.509,0.978,1.796,1.241,0.521,0.948,0.876,��,2.8,��
2017/08/28,22:50,0.954,1.509,0.981,1.798,1.242,0.521,0.949,0.876,��,2.8,��
2017/08/28,23:00,0.955,1.508,0.979,1.797,1.244,0.520,0.949,0.877,��,3.2,��
2017/08/28,23:10,0.954,1.511,0.981,1.797,1.241,0.519,0.950,0.877,��,2.8,��
2017/08/28,23:20,0.954,1.509,0.980,1.799,1.243,0.521,0.951,0.875,��,2.8,��
2017/08/28,23:30,0.954,1.509,0.979,1.799,1.244,0.522,0.950,0.875,��,3.0,��
2017/08/28,23:40,0.954,1.509,0.979,1.803,1.244,0.522,0.950,0.876,��,3.9,��
2017/08/28,23:50,0.953,1.510,0.978,1.799,1.241,0.520,0.951,0.877,��,4.1,��
